Rbgn^[z[y[W
メイン
   新天体発見情報
     Comet P/2021 R6 (Groeller)
投稿するにはまず登録を

スレッド表示 | 新しいものから 前のトピック | 次のトピック | 下へ
投稿者 スレッド
佐藤裕久
投稿日時: 2021-10-23 10:58
モデレータ
登録日: 2005-6-12
居住地: 日本
投稿: 2505
オンライン
Comet P/2021 R6 (Groeller)

Hannes Groeller (月惑星研究所:LPL, アリゾナ大学)の通報によると、9月12日UT、Mt Lemmonの
1.5-m 反射望遠鏡で得た画像から彗星を発見した。
4枚の30秒露出では、集光した4"のコマが見え、p.a. 240-270°にまたいで広い4" の尾がある。
小惑星センターのPCCP webpageに公表後、8月31.54-31.58日UT 、HaleakalaにあるPan-STARRS2 1.8-m 
Ritchey-Chretien 反射望遠鏡と、9月4.6日、 HaleakalaにあるPan-STARRS1 1.8-m Ritchey-
Chretien 反射望遠鏡で得られた発見前の観測が、小惑星センターの"分離したトラックレット
ファイル" (ITF)から見つかった。
佐藤英貴氏(東京都文京区, 9月13.48日UT, 60秒露出16枚のスタック, 0.43-m f/6.8 アストログラフ, 
Mayhill近郊, ニューメキシコ州, 米国, 遠隔操作: 恒星状に見えた。5".7の円形範囲で測定した
光度は20.8等であった。同様に9月17.4日,60秒露出20枚のスタックでは、強く集光した6" のコマが
見え、p.a. 280°に向かって6" の尾の気配がある。5".7の円形範囲で測定した光度は20.1等で
あった)らCCD位置観測者によって彗星状と観測された。

彗星機能の報告は次のとおり、

OC   Date        Reporter           Coma    Tail    PA          Exposures
G96  2021-09-13  H. Groeller        4"       4"    250-290        4x120s
G96  2021-09-14  H. Groeller        5"       3"    260-280        4x120s
H06  2021-09-17  H. Sato            6"       6"    290           20x60s

発見位置は次のとおり、

     2021 UT             R.A. (2000) Decl.       Mag.   Observer
     Sept.12.45894    2 35 09.72   - 6 51 30.6   20.2   Groeller
          12.46374    2 35 09.82   - 6 51 35.7   20.2     "
          12.46855    2 35 09.90   - 6 51 40.9   20.1     "
          12.47335    2 35 10.02   - 6 51 46.5   20.4     "
          12.49924    2 35 10.53   - 6 52 16.0   20.2     "
          12.50150    2 35 10.57   - 6 52 18.6   20.1     "
          12.50261    2 35 10.61   - 6 52 19.7   20.0     "

MPCの楕円軌道要素、位置推算表は次のとおり、

Orbital elements:
    P/2021 R6 (Groeller)                                                        
Epoch 2021 Nov. 2.0 TT = JDT 2459520.5                                          
T 2021 Oct. 31.87669 TT                                 Rudenko                 
q   2.5523120            (2000.0)            P               Q                  
n   0.06267108     Peri.  220.72228     +0.79234433     -0.60884188             
a   6.2770839      Node   176.11898     +0.59112446     +0.78189262             
e   0.5933921      Incl.   34.93149     -0.15087191     -0.13399812             
P  15.7                                                                         
From 64 observations 2021 Aug. 31-Sept. 28, mean residual 0".3.                 
                                                                                
    P/2021 R6 (Groeller)                                                        
Epoch 2037 Aug. 10.0 TT = JDT 2465280.5                                         
T 2037 July 29.96445 TT                                 Rudenko                 
q   2.5495388            (2000.0)            P               Q                  
n   0.06269442     Peri.  220.90818     +0.79011679     -0.61175214             
a   6.2755261      Node   176.15043     +0.59414934     +0.77977006             
e   0.5937331      Incl.   34.89027     -0.15067191     -0.13310887             
P  15.7                                                                         
From 64 observations 2021 Aug. 31-Sept. 28, mean residual 0".3.                 
                                                                                
    P/2021 R6 (Groeller)                                                        
Epoch 2021 July 5.0 TT = JDT 2459400.5                                          
T 2021 Oct. 31.83134 TT                                 Rudenko                 
q   2.5523604            (2000.0)            P               Q                  
n   0.06261699     Peri.  220.71070     +0.79247736     -0.60866813             
a   6.2806985      Node   176.11789     +0.59095700     +0.78202776             
e   0.5936184      Incl.   34.92955     -0.15082922     -0.13399883             
P  15.7                                                                         
From 64 observations 2021 Aug. 31-Sept. 28, mean residual 0".3.                 
                                                                                
Ephemeris:
Date    TT    R. A. (2000) Decl.     Delta      r    Elong.  Phase   m1
2021 08 29    02 27 41.4 -02 39 46   1.9444  2.6064   120.5    19.5  20.1
...
2021 09 13    02 35 21.2 -07 01 40   1.7981  2.5842   132.2    16.8  19.9
...
2021 09 21    02 37 25.0 -09 37 50   1.7390  2.5747   138.0    15.1  19.8
...
2021 09 27    02 38 00.9 -11 38 53   1.7044  2.5686   141.9    13.9  19.8
2021 09 28    02 38 02.2 -11 59 12   1.6995  2.5677   142.5    13.8  19.7
2021 09 29    02 38 02.2 -12 19 30   1.6948  2.5668   143.0    13.6  19.7
...
2021 10 05    02 37 35.1 -14 20 37   1.6721  2.5620   145.8    12.7  19.7
...
2021 10 13    02 35 53.7 -16 56 07   1.6564  2.5571   147.9    12.0  19.7
...
2021 10 28    02 30 22.8 -21 06 22   1.6710  2.5525   145.5    12.7  19.7

(MPEC 2021-S113、CBET 5045)

スレッド表示 | 新しいものから 前のトピック | 次のトピック | トップ

投稿するにはまず登録を
 
© 1999 Tsutomu Seki.